Location: Tierra del Sol
(32.6128°N, 116.3319°W)
Time: 16:10:29
(UTC-08:00)

Daily predictions for brighter satellites

Satellite Brightness Start Highest point End
(mag) Time Altitude Azimuth Time Altitude Azimuth Time Altitude Azimuth
CZ-2C R/B 3.6 17:02:30 10° S 17:07:15 49° W 17:12:12 10° NNW
SJ-12 4.4 17:03:48 10° S 17:07:54 67° W 17:12:02 10° NNW
Cosmos 1816 Rocket 4.5 17:02:57 10° N 17:09:05 78° E 17:15:15 10° S
CSL-04 Rocket 3.6 17:04:42 10° SSE 17:09:57 78° ENE 17:15:17 10° N
Cosmos 1763 Rocket 3.6 17:06:30 10° N 17:11:35 53° ENE 17:16:33 10° SSE
Cosmos 1782 3.5 17:08:58 10° SSE 17:12:37 34° E 17:16:17 10° NNE
YAOGAN 1 3.3 17:09:13 10° SE 17:13:01 31° ENE 17:16:50 10° N
GENESIS II 4.1 17:11:47 10° NNW 17:15:41 66° ENE 17:19:32 10° SE
Cosmos 2082 Rocket 3.3 17:12:22 10° N 17:16:37 21° ENE 17:20:50 10° ESE
USA 116 3.7 17:12:26 10° NNE 17:16:42 65° E 17:20:24 10° S
COSMO-SKYMED 1 3.3 17:13:18 10° NNE 17:17:17 34° E 17:21:13 10° SSE
ERS-2 3.2 17:15:49 10° SE 17:18:50 24° ENE 17:21:51 10° NNE
Cosmos 405 Rocket 4.1 17:17:19 10° SE 17:20:03 19° E 17:22:46 10° NE
Meteor 1-20 Rocket 4.4 17:15:58 10° N 17:21:19 48° E 17:26:34 10° SSE
SL-27 R/B 3.3 17:19:07 10° NNE 17:21:56 25° ENE 17:24:46 10° SE
Meteor 1-25 Rocket 4.4 17:16:14 10° N 17:21:58 56° E 17:27:37 10° SSE
GPS 2-05 Rocket1 2.9 17:23:06 10° WSW 17:26:11 55° SSE 17:28:41 15° E
Cosmos 1814 Rocket 4.0 17:21:17 10° NNW 17:26:40 85° ENE 17:32:00 10° SSE
OAO 3 Rocket 3.8 17:23:24 10° SW 17:28:05 47° SSE 17:32:07 14° E
Cosmos 2221 Rocket 3.9 17:25:32 10° SSE 17:29:41 42° E 17:33:51 10° NNE
MTI 3.7 17:26:49 10° NNE 17:30:00 62° E 17:33:11 10° S
Cosmos 1503 Rocket 4.0 17:26:17 10° S 17:31:30 64° ESE 17:36:41 10° NNE
Tiangong 1 2.4 17:30:14 10° SSW 17:32:11 19° SE 17:33:14 16° ESE
Cosmos 1703 Rocket 3.5 17:29:48 10° S 17:34:17 84° E 17:38:45 10° N
Ariane Rocket 3.5 17:30:08 10° S 17:35:11 65° WSW 17:40:14 10° NNW
BREEZE-M R/B 3.9 17:34:05 10° NNW 17:36:41 24° NE 17:38:43 17° E
Cosmos 2034 Rocket 4.5 17:31:46 10° SSE 17:37:35 39° E 17:43:25 10° NNE
Cosmos 540 Rocket 4.1 17:33:09 10° N 17:37:48 33° ENE 17:42:26 10° SE
CZ-2C R/B 4.2 17:35:25 10° N 17:39:51 62° WNW 17:44:21 10° SSW
Cosmos 304 Rocket 3.9 17:36:03 10° NNW 17:40:51 78° WSW 17:45:37 10° S
Meteor 1-27 Rocket 4.4 17:35:46 10° SSE 17:41:02 36° E 17:46:22 10° NNE
OAO 3 Copernicus 4.3 17:36:29 10° WNW 17:41:34 72° N 17:45:14 19° E
Cosmos 841 Rocket 3.5 17:41:57 10° NNW 17:47:15 88° ENE 17:52:30 10° SSE
SKYMED 3 4.5 17:42:57 10° NNE 17:47:18 82° E 17:51:38 10° S
Cosmos 1633 2.5 17:45:25 10° N 17:49:04 67° E 17:52:42 10° SSE
USA 234 3.3 17:42:56 11° NE 17:49:21 88° NW 17:55:53 10° SW
Meteor 1-10 Rocket 4.2 17:44:21 10° S 17:49:57 77° E 17:55:42 10° N
Okean 2 Rocket 3.5 17:49:05 10° N 17:53:22 40° E 17:57:36 10° SSE
FENGYUN 3A 3.9 17:50:41 10° SE 17:55:48 46° ENE 18:00:57 10° N
Cosmos 44 4.2 17:57:28 10° N 18:01:26 28° NE 18:01:26 28° NE
SKYMED 2 4.1 18:01:03 10° N 18:05:20 59° WNW 18:09:35 10° SSW
BREEZE-M DEB (TANK) 2.7 17:59:14 10° WNW 18:05:26 69° SW 18:07:23 22° SE
Cosmos 1464 Rocket 4.0 17:59:30 10° S 18:05:37 84° W 18:11:47 10° N
Cosmos 2369 Rocket 3.8 18:04:58 10° SE 18:07:10 17° SE 18:07:10 17° SE
ALOS 2.2 18:04:20 10° SSE 18:08:56 64° ENE 18:13:34 10° N
ERBS 4.4 18:06:46 10° WNW 18:09:45 29° WSW 18:12:45 10° S
Cosmos 2297 4.3 18:06:08 10° SW 18:11:43 56° WNW 18:17:21 10° N
SPOT 3 Rocket 3.4 18:07:19 10° SSE 18:12:32 80° ENE 18:17:45 10° N
Cosmos 1833 Rocket 2.6 18:06:59 10° NNW 18:12:36 67° ENE 18:18:10 10° SSE
CZ-4 R/B 3.8 18:14:35 10° SSW 18:17:43 23° W 18:20:50 10° NW
Cosmos 1441 Rocket 3.4 18:18:33 10° SSW 18:22:30 72° W 18:24:32 27° N
Meteor 1-11 Rocket 3.7 18:19:32 10° N 18:25:19 63° E 18:30:56 10° SSE
Gblst 52 Del rocket 4.2 18:23:27 10° SSW 18:28:51 59° SE 18:29:56 50° E
USA 229 DEB 3.6 18:26:47 10° SSW 18:33:21 61° ESE 18:35:11 46° ENE
USA 229 3.6 18:26:54 10° SSW 18:33:28 60° ESE 18:35:13 46° ENE
NOAA 12 4.3 18:28:29 10° S 18:33:47 73° WSW 18:39:06 10° NNW
Meteor 2-20 Rocket 4.3 18:33:12 10° N 18:39:17 71° E 18:45:18 10° SSE
Thor Agena Rocket 3.6 18:48:43 52° N 18:49:56 76° WNW 18:55:04 10° SSW
CZ-4C R/B 3.1 18:47:53 10° NNW 18:54:34 52° NE 18:54:34 52° NE
Cosmos 2082 Rocket 3.2 18:55:31 10° NW 19:00:52 44° WSW 19:06:10 10° S
MOS 1-B Rocket 4.4 18:59:08 10° SSE 19:06:05 85° ENE 19:14:19 10° NNW
OAO 3 Rocket 4.3 19:06:37 10° W 19:09:56 42° W 19:09:56 42° W
Cosmos 1634 Rocket 4.5 19:13:16 10° S 19:17:47 51° SSW 19:17:47 51° SSW
Cosmos 2369 Rocket 4.3 19:47:10 10° SW 19:49:02 20° SW 19:49:02 20° SW
